Location: Colonie
(42.7179°N, 73.8335°W)
Time: 05:15:06
(UTC+00:00)

Cosmos 2369 - Pass Details

Date: 29 October 2020
Orbit: 841 x 854 km, 71.0° (Epoch: 29 November)

Event Time Altitude Azimuth Distance (km) Brightness Sun altitude
Rises 23:31:15 0° 204° (SSW) 3,408 7.2 -18.9°
Reaches altitude 10° 23:33:42 10° 204° (SSW) 2,475 6.4 -19.3°
Maximum altitude 23:39:24 86° 293° (WNW) 859 3.7 -20.4°
Drops below altitude 10° 23:45:08 10° 24° (NNE) 2,483 5.9 -21.4°
Enters shadow 23:45:12 10° 24° (NNE) 2,513 5.9 -21.4°
